Torna al catalogo

JAY-D1

AttivoMilitareSSO
NORAD 62669·PAYLOAD·🇨🇦 Canada

Lanciato Jan 14, 2025 da Vandenberg Space Force Base

Loading…

Prossimi Passaggi (prossime 24 ore)

TLE

AggiornatoSource: Space-Track

Epoca: Sep 14, 2026, 13:27 UTC

1 62669U 25009BN  26257.56075165  .00002859  00000-0  12507-3 0  9994
2 62669  97.3972 335.5819 0006054  42.5106 317.6598 15.22859391149979

Traccia JAY-D1 in tempo reale con AllMySat

Download on the App Store